This is the latest recevied weather packets stored in our database for station/object K1BES. If no packets are shown the sender has not sent any weather packets the latest 10 day(s).
| Time | Temp. | Humidity | Pressure | Rain* | Wind** | Luminosity | Snow |
|---|---|---|---|---|---|---|---|
| 1777648365 | 28.89° C | 71% | 1015.5 hPa | 0 mm | - | 804 W/m² | - |
| 1777648061 | 28.89° C | 70% | 1015.6 hPa | 0 mm | - | 787 W/m² | - |
| 1777647758 | 28.33° C | 72% | 1015.5 hPa | 0 mm | - | 771 W/m² | - |
| 1777647454 | 28.33° C | 73% | 1015.7 hPa | 0 mm | - | 754 W/m² | - |
| 1777647152 | 27.78° C | 73% | 1015.6 hPa | 0 mm | - | 740 W/m² | - |
| 1777646848 | 27.78° C | 74% | 1015.7 hPa | 0 mm | - | 709 W/m² | - |
| 1777646544 | 27.78° C | 75% | 1015.5 hPa | 0 mm | - | 637 W/m² | - |
| 1777646240 | 27.78° C | 74% | 1015.8 hPa | 0 mm | - | 497 W/m² | - |
| 1777645938 | 27.78° C | 74% | 1015.6 hPa | 0 mm | - | 411 W/m² | - |
| 1777645635 | 27.78° C | 74% | 1015.5 hPa | 0 mm | - | 442 W/m² | - |
| 1777645330 | 28.33° C | 73% | 1015.7 hPa | 0 mm | - | 417 W/m² | - |
| 1777645026 | 28.33° C | 74% | 1015.4 hPa | 0 mm | - | 516 W/m² | - |
| 1777644724 | 28.33° C | 74% | 1015.2 hPa | 0 mm | - | 529 W/m² | - |
| 1777644420 | 27.78° C | 75% | 1015.4 hPa | 0 mm | - | 461 W/m² | - |
| 1777644117 | 27.78° C | 74% | 1015.3 hPa | 0 mm | - | 444 W/m² | - |
| 1777643813 | 27.78° C | 75% | 1015.3 hPa | 0 mm | - | 467 W/m² | - |
| 1777643511 | 27.78° C | 74% | 1015.3 hPa | 0 mm | - | 339 W/m² | - |
| 1777643207 | 27.22° C | 76% | 1015.3 hPa | 0 mm | - | 323 W/m² | - |
| 1777642904 | 27.78° C | 75% | 1015.3 hPa | 0 mm | - | 317 W/m² | - |
| 1777642601 | 28.33° C | 74% | 1015.3 hPa | 0 mm | - | 546 W/m² | - |
| 1777642298 | 28.33° C | 74% | 1015.3 hPa | 0 mm | - | 521 W/m² | - |
| 1777641994 | 27.78° C | 74% | 1015.4 hPa | 0 mm | - | 472 W/m² | - |
| 1777641690 | 27.78° C | 74% | 1015.3 hPa | 0 mm | - | 424 W/m² | - |
| 1777641385 | 27.22° C | 77% | 1015.1 hPa | 0 mm | - | 405 W/m² | - |
| 1777641081 | 27.22° C | 77% | 1015.2 hPa | 0 mm | - | 365 W/m² | - |
* Rain latest hour (hover to see other rain measurements)
** Current wind speed in m/s (hover to see current wind gust speed)